Terminal Aerodrome Forecast
Issued by NWS Grand Forks, ND

Home | Current Version | Previous Version | Graphics & Text | Print | Product List | Glossary On
Versions: 1 2 3 4 5 6 7 8 9 10 11 12 13 14 15 16 17 18
000
FTUS43 KFGF 181138
TAFFAR
TAF
KFAR 181138Z 1812/1912 33007KT P6SM OVC070
     FM181800 32014G22KT P6SM SCT250
     FM190200 30009KT P6SM SKC
     FM191000 20006KT P6SM FEW250=

USA.gov is the U.S. government's official web portal to all federal, state and local government web resources and services.